Terminal Aerodrome Forecast
Issued by NWS Portland, OR

Home | Current Version | Previous Version | Text Only | Print | Product List | Glossary On
Versions: 1 2 3 4 5 6 7 8 9 10 11 12 13 14 15 16 17 18 19 20 21 22 23 24 25 26 27
000
FTUS46 KPQR 230520
TAFHIO
TAF
KHIO 230520Z 2306/2406 32012KT P6SM FEW080
     FM230700 VRB02KT P6SM FEW200
     FM231900 02005KT P6SM SKC
     FM232100 35012KT P6SM SKC=

USA.gov is the U.S. government's official web portal to all federal, state and local government web resources and services.